User: anonymous   Login
Location: Unspecified
(0.0000°N, 0.0000°E)
Time: 14:47:57
(UTC+00:00)
Language:

Vanguard 3 - Orbit

View from above orbital plane
View from above orbital plane
View from above satellite
View from above satellite

Ground track
Ground track

The orbit data is extracted from the following two-line orbital elements,

1    20U 59007A   17200.56869695 -.00000026 +00000-0 -60624-5 0  9990
2    20 033.3455 011.4996 1667932 024.0748 342.9497 11.55424852107504
Epoch (UTC): 19 July 2017 13:38:55
Eccentricity: 0.1667932
inclination: 33.3455°
perigee height: 508 km
apogee height: 3265 km
right ascension of ascending node: 11.4996°
argument of perigee: 24.0748°
revolutions per day: 11.55424852
mean anomaly at epoch: 342.9497°
orbit number at epoch: 10750

The dashed part of the orbit path shows where the satellite is in the earth's shadow,  

DLR